Weather History for KMML - December, 2013

Change the Weather History Date:

Sunday, December 22, 2013

  Actual Average Record
Temperature  
Mean Temperature -1 °F -  
Max Temperature 3 °F 24 °F 48 °F (1986)
Min Temperature -5 °F 8 °F -21 °F (1983)
Degree Days  
Heating Degree Days 66    
Moisture  
Dew Point -7 °F    
Average Humidity 72    
Maximum Humidity 78    
Minimum Humidity 61    
Precipitation  
Precipitation 0.00 in - - ()
Sea Level Pressure  
Sea Level Pressure 30.12 in    
Wind  
Wind Speed 16 mph (NW)    
Max Wind Speed 23 mph    
Max Gust Speed 24 mph    
Visibility 8 miles    
Events      
Averages and records for this station are not official NWS values.
T = Trace of Precipitation, MM = Missing Value Source: NWS Daily Summary

Daily Weather History Graph

Daily Weather History Graph

Search for Another Location

Airport or City:

Trip Planner

Search our weather history database for the weather conditions in past years. The results will help you decide how hot, cold, wet, or windy it might be!

Date:

Astronomy

Dec. 22, 2013 Rise Set
Actual Time 7:57 AM CST 4:47 PM CST
Civil Twilight 7:23 AM CST 5:20 PM CST
Nautical Twilight 6:46 AM CST 5:57 PM CST
Astronomical Twilight 6:11 AM CST 6:32 PM CST
Moon 10:12 PM CST (12/22) 10:43 AM CST (12/22)
Length of Visible Light 9h 57m
Length of Day
8h 50m
Waning Gibbous, 76% of the Moon is Illuminated
Dec 22
Waning Gibbous
Dec 25
Last Quarter
Jan 1
New
Jan 7
First Quarter
Jan 15
Full

Hourly Weather History & Observations

Time (CST) Temp. Windchill Dew Point Humidity Pressure Visibility Wind Dir Wind Speed Gust Speed Precip Events Conditions
12:15 AM 3.2 °F -15.3 °F -2.2 °F 78% 29.98 in 10.0 mi NNW 15.0 mph - N/A   Overcast
12:35 AM 3.2 °F -14.6 °F -2.2 °F 78% 29.98 in 9.0 mi NNW 13.8 mph - N/A   Mostly Cloudy
12:55 AM 3.2 °F -16.5 °F -2.2 °F 78% 29.98 in 7.0 mi NNW 17.3 mph - N/A   Scattered Clouds
1:15 AM 3.2 °F -15.9 °F -2.2 °F 78% 29.99 in 8.0 mi NNW 16.1 mph - N/A   Mostly Cloudy
1:35 AM 3.2 °F -15.9 °F -4.0 °F 72% 29.99 in 7.0 mi NNW 16.1 mph - N/A   Mostly Cloudy
1:55 AM 3.2 °F -14.6 °F -2.2 °F 78% 29.99 in 8.0 mi NNW 13.8 mph - N/A   Overcast
2:15 AM 1.4 °F -17.6 °F -4.0 °F 78% 29.99 in 7.0 mi NNW 15.0 mph - N/A   Mostly Cloudy
2:35 AM 1.4 °F -18.2 °F -4.0 °F 78% 30.01 in 9.0 mi NNW 16.1 mph - N/A   Scattered Clouds
2:55 AM 1.4 °F -15.3 °F -4.0 °F 78% 30.01 in 10.0 mi NNW 11.5 mph - N/A   Mostly Cloudy
3:15 AM 1.4 °F -16.1 °F -4.0 °F 78% 30.02 in 9.0 mi NNW 12.7 mph - N/A   Overcast
3:35 AM 1.4 °F -16.9 °F -5.8 °F 72% 30.02 in 6.0 mi NNW 13.8 mph 19.6 mph N/A   Scattered Clouds
3:55 AM 1.4 °F -19.4 °F -5.8 °F 72% 30.02 in 7.0 mi NW 18.4 mph - N/A   Clear
4:15 AM 1.4 °F -17.6 °F -5.8 °F 72% 30.02 in 5.0 mi NNW 15.0 mph - N/A   Clear
4:35 AM 1.4 °F -19.4 °F -5.8 °F 72% 30.02 in 5.0 mi NW 18.4 mph - N/A   Clear
4:55 AM 1.4 °F -17.6 °F -5.8 °F 72% 30.03 in 4.0 mi NW 15.0 mph - N/A   Clear
5:15 AM 1.4 °F -16.1 °F -5.8 °F 72% 30.03 in 4.0 mi NNW 12.7 mph - N/A   Clear
5:35 AM -0.4 °F -19.9 °F -5.8 °F 78% 30.03 in 4.0 mi NNW 15.0 mph - N/A   Clear
5:55 AM -0.4 °F -21.2 °F -5.8 °F 78% 30.03 in 5.0 mi NW 17.3 mph - N/A   Clear
6:15 AM -0.4 °F -21.7 °F -7.6 °F 72% 30.03 in 5.0 mi NNW 18.4 mph - N/A   Clear
6:35 AM -0.4 °F -20.5 °F -7.6 °F 72% 30.03 in 9.0 mi NW 16.1 mph - N/A   Clear
6:55 AM -0.4 °F -19.2 °F -5.8 °F 78% 30.03 in 9.0 mi NNW 13.8 mph - N/A   Clear
7:15 AM -0.4 °F -19.9 °F -7.6 °F 72% 30.04 in 8.0 mi NW 15.0 mph - N/A   Clear
7:35 AM -0.4 °F -21.7 °F -7.6 °F 72% 30.03 in 8.0 mi NW 18.4 mph - N/A   Clear
7:55 AM -0.4 °F -19.2 °F -5.8 °F 78% 30.04 in 5.0 mi NNW 13.8 mph - N/A   Clear
8:15 AM -0.4 °F -19.2 °F -5.8 °F 78% 30.04 in 7.0 mi NNW 13.8 mph - N/A   Clear
8:35 AM -0.4 °F -20.5 °F -5.8 °F 78% 30.05 in 5.0 mi NW 16.1 mph - N/A   Clear
8:55 AM -0.4 °F -21.2 °F -5.8 °F 78% 30.06 in 3.0 mi NNW 17.3 mph - N/A   Clear
9:15 AM -0.4 °F -21.2 °F -7.6 °F 72% 30.07 in 3.0 mi NNW 17.3 mph 24.2 mph N/A   Clear
9:35 AM 1.4 °F -19.4 °F -5.8 °F 72% 30.08 in 3.0 mi NNW 18.4 mph 21.9 mph N/A   Partly Cloudy
9:55 AM 1.4 °F -18.2 °F -5.8 °F 72% 30.09 in 5.0 mi NNW 16.1 mph 23.0 mph N/A   Clear
10:15 AM 1.4 °F -19.4 °F -5.8 °F 72% 30.10 in 3.0 mi NNW 18.4 mph - N/A   Clear
10:35 AM 1.4 °F -18.8 °F -5.8 °F 72% 30.10 in 5.0 mi NNW 17.3 mph - N/A   Clear
10:55 AM 1.4 °F -20.5 °F -9.4 °F 61% 30.12 in 3.0 mi NW 20.7 mph - N/A   Partly Cloudy
11:15 AM 1.4 °F -19.4 °F -7.6 °F 66% 30.11 in 3.0 mi NW 18.4 mph - N/A   Partly Cloudy
11:35 AM 1.4 °F -19.4 °F -5.8 °F 72% 30.11 in 7.0 mi NNW 18.4 mph - N/A   Clear
11:55 AM 1.4 °F -19.9 °F -5.8 °F 72% 30.10 in 5.0 mi NNW 19.6 mph - N/A   Mostly Cloudy
12:15 PM 1.4 °F -19.4 °F -5.8 °F 72% 30.10 in 5.0 mi NW 18.4 mph - N/A   Overcast
12:35 PM 1.4 °F -18.8 °F -7.6 °F 66% 30.10 in 5.0 mi NW 17.3 mph - N/A   Overcast
12:55 PM 1.4 °F -18.8 °F -5.8 °F 72% 30.11 in 8.0 mi NW 17.3 mph - N/A   Overcast
1:15 PM 1.4 °F -19.4 °F -5.8 °F 72% 30.11 in 8.0 mi NW 18.4 mph - N/A   Overcast
1:35 PM 1.4 °F -21.0 °F -7.6 °F 66% 30.11 in 5.0 mi NW 21.9 mph - N/A   Overcast
1:55 PM 1.4 °F -19.4 °F -5.8 °F 72% 30.12 in 10.0 mi NW 18.4 mph - N/A   Mostly Cloudy
2:15 PM 3.2 °F -16.5 °F -5.8 °F 66% 30.12 in 10.0 mi NNW 17.3 mph - N/A   Scattered Clouds
2:35 PM 1.4 °F -19.9 °F -5.8 °F 72% 30.13 in 10.0 mi NW 19.6 mph - N/A   Clear
2:55 PM 3.2 °F -17.6 °F -5.8 °F 66% 30.13 in 10.0 mi NW 19.6 mph - N/A   Clear
3:15 PM 1.4 °F -18.2 °F -5.8 °F 72% 30.13 in 10.0 mi NW 16.1 mph - N/A   Scattered Clouds
3:35 PM 1.4 °F -21.4 °F -5.8 °F 72% 30.14 in 5.0 mi NW 23.0 mph - N/A   Scattered Clouds
3:55 PM 1.4 °F -19.9 °F -5.8 °F 72% 30.16 in 10.0 mi NW 19.6 mph - N/A   Mostly Cloudy
4:15 PM 1.4 °F -19.9 °F -5.8 °F 72% 30.17 in 10.0 mi NW 19.6 mph - N/A   Overcast
4:35 PM 3.2 °F -18.6 °F -5.8 °F 66% 30.18 in 9.0 mi NW 21.9 mph - N/A   Overcast
4:55 PM 3.2 °F -15.9 °F -5.8 °F 66% 30.18 in 10.0 mi NW 16.1 mph - N/A   Overcast
5:15 PM 1.4 °F -19.9 °F -5.8 °F 72% 30.19 in 10.0 mi NW 19.6 mph - N/A   Partly Cloudy
5:35 PM 1.4 °F -18.8 °F -5.8 °F 72% 30.19 in 10.0 mi NNW 17.3 mph - N/A   Clear
5:55 PM 1.4 °F -16.1 °F -5.8 °F 72% 30.19 in 10.0 mi NNW 12.7 mph - N/A   Clear
6:15 PM 1.4 °F -17.6 °F -5.8 °F 72% 30.20 in 10.0 mi NW 15.0 mph - N/A   Mostly Cloudy
6:35 PM 1.4 °F -18.2 °F -5.8 °F 72% 30.21 in 10.0 mi NW 16.1 mph - N/A   Overcast
6:55 PM 1.4 °F -18.8 °F -7.6 °F 66% 30.21 in 10.0 mi NW 17.3 mph 21.9 mph N/A   Overcast
7:15 PM 1.4 °F -21.4 °F -7.6 °F 66% 30.22 in 10.0 mi NW 23.0 mph - N/A   Mostly Cloudy
7:35 PM -0.4 °F -20.5 °F -5.8 °F 78% 30.24 in 10.0 mi NNW 16.1 mph - N/A   Mostly Cloudy
7:55 PM -0.4 °F -20.5 °F -7.6 °F 72% 30.24 in 10.0 mi NW 16.1 mph - N/A   Scattered Clouds
8:15 PM -0.4 °F -21.7 °F -9.4 °F 66% 30.25 in 10.0 mi NW 18.4 mph - N/A   Clear
8:35 PM -2.2 °F -24.1 °F -9.4 °F 71% 30.25 in 10.0 mi NW 18.4 mph - N/A   Clear
8:55 PM -2.2 °F -23.5 °F -9.4 °F 71% 30.26 in 10.0 mi NW 17.3 mph - N/A   Clear
9:15 PM -2.2 °F -23.5 °F -9.4 °F 71% 30.27 in 10.0 mi NW 17.3 mph - N/A   Clear
9:35 PM -2.2 °F -22.9 °F -9.4 °F 71% 30.27 in 10.0 mi NW 16.1 mph - N/A   Clear
9:55 PM -2.2 °F -23.5 °F -11.2 °F 66% 30.28 in 10.0 mi NW 17.3 mph - N/A   Clear
10:15 PM -4.0 °F -26.4 °F -11.2 °F 71% 30.29 in 10.0 mi NW 18.4 mph - N/A   Clear
10:35 PM -4.0 °F -25.8 °F -11.2 °F 71% 30.29 in 10.0 mi NW 17.3 mph - N/A   Clear
10:55 PM -5.8 °F -28.8 °F -13.0 °F 71% 30.30 in 10.0 mi NW 18.4 mph - N/A   Clear
11:15 PM -5.8 °F -30.5 °F -14.8 °F 65% 30.31 in 10.0 mi NW 21.9 mph - N/A   Clear
11:35 PM -5.8 °F -28.8 °F -13.0 °F 71% 30.31 in 10.0 mi NW 18.4 mph - N/A   Clear
11:55 PM -5.8 °F -29.9 °F -14.8 °F 65% 30.32 in 10.0 mi NW 20.7 mph - N/A   Clear